Location: Hurecourt
(47.9030°N, 6.0653°E)
Time: 19:28:02
(UTC+00:00)

Cosmos 1725 Rocket - Pass Details

Date: 14 July 2020
Orbit: 963 x 990 km, 82.9° (Epoch: 14 August)

Event Time Altitude Azimuth Distance (km) Brightness Sun altitude
Exits shadow 01:21:06 21° 172° (S) 2,048 5.2 -17.0°
Maximum altitude 01:25:25 68° 94° (E) 1,046 4.2 -16.7°
Drops below altitude 10° 01:31:38 10° 13° (NNE) 2,738 7.6 -16.2°
Sets 01:34:10 0° 12° (NNE) 3,694 8.6 -16.0°
